{"data":{"norad_id":39078,"epoch":"2026-09-19T11:33:00.595296Z","epoch_age_seconds":109902,"freshness":"FRESH","line1":"1 39078U 13006A   26262.48125689 -.00000287  00000+0  00000+0 0  9994","line2":"2 39078   0.0363 227.6101 0005081 325.5552 277.4789  1.00275132 45870","mean_motion":1.00275132,"eccentricity":0.0005081,"inclination_deg":0.0363,"raan_deg":227.6101,"arg_perigee_deg":325.5552,"mean_anomaly_deg":277.4789,"bstar":0,"rev_number":4587,"period_min":1436.0489697486,"perigee_km":35764.23327811,"apogee_km":35807.08012527,"semimajor_km":42163.79370169,"source":"CELESTRAK","updated_at":"2026-09-20T09:00:35.180349Z"}}